Satellite: NOAA-12
Catalog number: 21263
Epoch time:      06081.77035700
Element set:    0531
Inclination:      098.7282 deg
RA of node:       075.4339 deg
Eccentricity:    0.0012719
Arg of perigee:   343.2839 deg
Mean anomaly:     016.7914 deg
Mean motion:   14.25484698 rev/day
Decay rate:       -1.3e-07 rev/day^2
Epoch rev:           77193
Checksum:              311

Satellite: MET-3/5
Catalog number: 21655
Epoch time:      06081.76016993
Element set:    0070
Inclination:      082.5594 deg
RA of node:       321.8672 deg
Eccentricity:    0.0012171
Arg of perigee:   258.3869 deg
Mean anomaly:     101.5885 deg
Mean motion:   13.17006791 rev/day
Decay rate:        5.1e-07 rev/day^2
Epoch rev:           70198
Checksum:              310

Satellite: MET-2/21
Catalog number: 22782
Epoch time:      06081.90426436
Element set:    0461
Inclination:      082.5489 deg
RA of node:       039.8914 deg
Eccentricity:    0.0023905
Arg of perigee:   063.6010 deg
Mean anomaly:     296.7612 deg
Mean motion:   13.83601471 rev/day
Decay rate:       -9.0e-08 rev/day^2
Epoch rev:           63411
Checksum:              295

Satellite: OKEAN-4
Catalog number: 23317
Epoch time:      06082.76050910
Element set:     896
Inclination:      082.5430 deg
RA of node:       356.6846 deg
Eccentricity:    0.0021157
Arg of perigee:   299.7673 deg
Mean anomaly:     060.1451 deg
Mean motion:   14.82325885 rev/day
Decay rate:       3.43e-06 rev/day^2
Epoch rev:           61732
Checksum:              308

Satellite: NOAA-14
Catalog number: 23455
Epoch time:      06081.80870021
Element set:    0045
Inclination:      099.0488 deg
RA of node:       139.1201 deg
Eccentricity:    0.0008537
Arg of perigee:   295.9193 deg
Mean anomaly:     064.1095 deg
Mean motion:   14.13643068 rev/day
Decay rate:      -1.74e-06 rev/day^2
Epoch rev:           57886
Checksum:              308

Satellite: SICH-1
Catalog number: 23657
Epoch time:      06082.83202824
Element set:     701
Inclination:      082.5285 deg
RA of node:       137.5075 deg
Eccentricity:    0.0022451
Arg of perigee:   285.6280 deg
Mean anomaly:     074.2460 deg
Mean motion:   14.81324433 rev/day
Decay rate:       1.87e-06 rev/day^2
Epoch rev:           56935
Checksum:              290

Satellite: NOAA-15
Catalog number: 25338
Epoch time:      06081.91406172
Element set:    0443
Inclination:      098.5178 deg
RA of node:       086.7943 deg
Eccentricity:    0.0009638
Arg of perigee:   267.0633 deg
Mean anomaly:     092.9446 deg
Mean motion:   14.24567728 rev/day
Decay rate:        7.0e-08 rev/day^2
Epoch rev:           40843
Checksum:              329

Satellite: RESURS
Catalog number: 25394
Epoch time:      06082.77820730
Element set:     327
Inclination:      098.5007 deg
RA of node:       148.5188 deg
Eccentricity:    0.0002365
Arg of perigee:   073.3563 deg
Mean anomaly:     286.7875 deg
Mean motion:   14.24096347 rev/day
Decay rate:       -1.9e-07 rev/day^2
Epoch rev:           40024
Checksum:              306

Satellite: FENGYUN1
Catalog number: 25730
Epoch time:      06081.80123585
Element set:    0680
Inclination:      098.6256 deg
RA of node:       077.6292 deg
Eccentricity:    0.0015047
Arg of perigee:   030.0117 deg
Mean anomaly:     330.1913 deg
Mean motion:   14.11808929 rev/day
Decay rate:       -3.0e-08 rev/day^2
Epoch rev:           35382
Checksum:              276

Satellite: OKEAN-0
Catalog number: 25860
Epoch time:      06082.57211668
Element set:     700
Inclination:      097.7398 deg
RA of node:       100.8763 deg
Eccentricity:    0.0001950
Arg of perigee:   051.5572 deg
Mean anomaly:     308.5820 deg
Mean motion:   14.73345274 rev/day
Decay rate:        7.4e-07 rev/day^2
Epoch rev:           35914
Checksum:              298

Satellite: NOAA-16
Catalog number: 26536
Epoch time:      06081.92851603
Element set:    0801
Inclination:      099.0587 deg
RA of node:       047.5738 deg
Eccentricity:    0.0010786
Arg of perigee:   007.5777 deg
Mean anomaly:     352.5525 deg
Mean motion:   14.12324461 rev/day
Decay rate:       -3.0e-07 rev/day^2
Epoch rev:           28340
Checksum:              301

Satellite: NOAA-17
Catalog number: 27453
Epoch time:      06082.92672240
Element set:     825
Inclination:      098.6267 deg
RA of node:       156.7753 deg
Eccentricity:    0.0011108
Arg of perigee:   326.6890 deg
Mean anomaly:     033.3610 deg
Mean motion:   14.23760483 rev/day
Decay rate:        4.9e-07 rev/day^2
Epoch rev:           19464
Checksum:              311

Satellite: NOAA-18
Catalog number: 28654
Epoch time:      06082.40185787
Element set:     410
Inclination:      098.7800 deg
RA of node:       027.5472 deg
Eccentricity:    0.0015151
Arg of perigee:   103.2465 deg
Mean anomaly:     257.0396 deg
Mean motion:   14.10941962 rev/day
Decay rate:       3.99e-06 rev/day^2
Epoch rev:            4328
Checksum:              305

/EX
SB KEPS @ AMSAT  $ORB06082.M
Orbital Elements  06082.MISC

HR AMSAT ORBITAL ELEMENTS FOR MANNED AND MISCELLANEOUS SATELLITES
FROM WA5QGD FORT WORTH,TX March 23, 2006
Send SUBSCRIBE KEPS/UNSUBSCRIBE KEPS to majordomo@amsat.org only
BID: ORB06082.M
TO ALL RADIO AMATEURS BT

Satellite: HUBBLE
Catalog number: 20580
Epoch time:      06081.80000742
Element set:     571
Inclination:      028.4666 deg
RA of node:       253.0198 deg
Eccentricity:    0.0003360
Arg of perigee:   347.5445 deg
Mean anomaly:     012.5044 deg
Mean motion:   14.99986328 rev/day
Decay rate:       6.13e-06 rev/day^2
Epoch rev:           67211
Checksum:              279

